Time,TemperatureF,DewpointF,PressureIn,WindDirection,WindDirectionDegrees,WindSpeedMPH,WindSpeedGustMPH,Humidity,HourlyPrecipIn,Conditions,Clouds,dailyrainin,SoftwareType,DateUTC
2013-03-06 00:00:00,31.6,26.4,29.75,West,260,5.0,6.0,81,14.40,,,99.99,Wunderground v.1.15,2013-03-06 05:00:00,
2013-03-06 00:01:00,31.5,26.0,29.75,WSW,257,1.0,6.0,80,15.16,,,99.99,Wunderground v.1.15,2013-03-06 05:01:00,
2013-03-06 00:06:00,31.3,26.4,29.75,WSW,251,0.0,1.0,82,14.40,,,99.99,Wunderground v.1.15,2013-03-06 05:06:00,
2013-03-06 00:12:00,31.0,26.1,29.75,West,275,0.0,6.0,82,15.16,,,99.99,Wunderground v.1.15,2013-03-06 05:12:00,
2013-03-06 00:18:00,30.6,26.1,29.74,WNW,296,0.0,1.0,83,15.16,,,99.99,Wunderground v.1.15,2013-03-06 05:18:00,
2013-03-06 00:23:00,30.4,25.6,29.74,WSW,251,7.0,8.0,82,15.16,,,99.99,Wunderground v.1.15,2013-03-06 05:23:00,
2013-03-06 00:29:00,30.1,24.4,29.74,North,7,3.0,7.0,79,14.40,,,99.99,Wunderground v.1.15,2013-03-06 05:29:00,
2013-03-06 00:36:00,30.0,22.7,29.75,West,267,5.0,5.0,74,15.16,,,99.99,Wunderground v.1.15,2013-03-06 05:36:00,
2013-03-06 00:42:00,30.0,23.0,29.75,North,0,3.0,6.0,75,15.16,,,99.99,Wunderground v.1.15,2013-03-06 05:42:00,
2013-03-06 00:47:00,30.0,22.1,29.75,WNW,301,0.0,6.0,72,15.16,,,99.99,Wunderground v.1.15,2013-03-06 05:47:00,
2013-03-06 00:52:00,30.0,22.1,29.74,NW,305,0.0,10.0,72,15.16,,,99.99,Wunderground v.1.15,2013-03-06 05:52:00,
2013-03-06 00:58:00,30.1,21.5,29.74,NW,315,0.0,8.0,70,15.16,,,99.99,Wunderground v.1.15,2013-03-06 05:58:00,
2013-03-06 01:03:00,30.1,21.5,29.74,WSW,250,3.0,8.0,70,14.40,,,-99.99,Wunderground v.1.15,2013-03-06 06:03:00,
2013-03-06 01:10:00,30.1,22.2,29.74,West,270,0.0,4.0,72,14.40,,,-99.99,Wunderground v.1.15,2013-03-06 06:10:00,
2013-03-06 01:16:00,30.1,21.5,29.74,NE,55,3.0,3.0,70,15.16,,,-99.99,Wunderground v.1.15,2013-03-06 06:16:00,
2013-03-06 01:22:00,30.1,21.5,29.73,West,264,7.0,10.0,70,15.16,,,-99.99,Wunderground v.1.15,2013-03-06 06:22:00,
2013-03-06 01:27:00,30.0,21.7,29.73,WNW,289,0.0,7.0,71,15.16,,,-99.99,Wunderground v.1.15,2013-03-06 06:27:00,
2013-03-06 01:32:00,30.0,23.0,29.73,West,263,0.0,7.0,75,15.16,,,-99.99,Wunderground v.1.15,2013-03-06 06:32:00,
2013-03-06 01:37:00,29.7,22.7,29.74,West,281,0.0,14.0,75,15.16,,,-99.99,Wunderground v.1.15,2013-03-06 06:37:00,
2013-03-06 01:43:00,29.3,23.9,29.74,ENE,68,0.0,14.0,80,14.40,,,-99.99,Wunderground v.1.15,2013-03-06 06:43:00,
2013-03-06 01:49:00,29.0,24.2,29.74,WNW,284,0.0,5.0,82,15.16,,,-99.99,Wunderground v.1.15,2013-03-06 06:49:00,
2013-03-06 01:56:00,28.7,22.4,29.74,WNW,287,0.0,2.0,77,15.16,,,-99.99,Wunderground v.1.15,2013-03-06 06:56:00,
2013-03-06 02:01:00,28.8,23.1,29.74,North,0,0.0,3.0,79,15.16,,,-99.99,Wunderground v.1.15,2013-03-06 07:01:00,
2013-03-06 02:07:00,28.7,22.7,29.73,WSW,243,1.0,2.0,78,15.16,,,0.95,Wunderground v.1.15,2013-03-06 07:07:00,
2013-03-06 02:12:00,28.7,23.0,29.73,NW,311,0.0,2.0,79,14.40,,,2.18,Wunderground v.1.15,2013-03-06 07:12:00,
2013-03-06 02:17:00,28.5,22.8,29.73,NNW,336,0.0,0.0,79,14.40,,,3.41,Wunderground v.1.15,2013-03-06 07:17:00,
2013-03-06 02:23:00,28.4,23.3,29.73,West,281,0.0,2.0,81,15.16,,,4.76,Wunderground v.1.15,2013-03-06 07:23:00,
2013-03-06 02:28:00,28.2,23.7,29.73,NW,323,0.0,2.0,83,14.40,,,5.99,Wunderground v.1.15,2013-03-06 07:28:00,
2013-03-06 02:33:00,27.9,23.1,29.74,NNW,342,0.0,16.0,82,14.40,,,7.10,Wunderground v.1.15,2013-03-06 07:33:00,
2013-03-06 02:38:00,27.8,22.7,29.74,NW,308,9.0,9.0,81,14.40,,,8.45,Wunderground v.1.15,2013-03-06 07:38:00,
2013-03-06 02:43:00,27.8,21.5,29.74,NW,313,0.0,12.0,77,14.40,,,9.64,Wunderground v.1.15,2013-03-06 07:43:00,
2013-03-06 02:48:00,27.9,21.9,29.73,NNW,333,0.0,4.0,78,15.16,,,10.75,Wunderground v.1.15,2013-03-06 07:48:00,
2013-03-06 02:53:00,28.1,20.9,29.73,SSW,198,0.0,12.0,74,15.16,,,11.98,Wunderground v.1.15,2013-03-06 07:53:00,
2013-03-06 02:58:00,27.9,22.8,29.73,West,278,0.0,3.0,81,15.16,,,13.21,Wunderground v.1.15,2013-03-06 07:58:00,
2013-03-06 03:06:00,27.6,21.9,29.73,West,272,5.0,5.0,79,14.40,,,14.96,Wunderground v.1.15,2013-03-06 08:06:00,
2013-03-06 03:11:00,27.6,21.0,29.73,NNW,343,0.0,6.0,76,15.16,,,16.23,Wunderground v.1.15,2013-03-06 08:11:00,
2013-03-06 03:16:00,27.5,21.2,29.73,NNW,337,0.0,3.0,77,15.16,,,17.46,Wunderground v.1.15,2013-03-06 08:16:00,
2013-03-06 03:21:00,27.0,22.5,29.73,NW,308,3.0,14.0,83,14.40,,,18.77,Wunderground v.1.15,2013-03-06 08:21:00,
2013-03-06 03:27:00,26.1,21.6,29.73,NW,320,0.0,3.0,83,15.16,,,19.92,Wunderground v.1.15,2013-03-06 08:27:00,
2013-03-06 03:32:00,25.6,20.0,29.73,SSW,206,0.0,12.0,79,15.16,,,21.11,Wunderground v.1.15,2013-03-06 08:32:00,
2013-03-06 03:37:00,25.3,19.4,29.75,West,264,0.0,3.0,78,15.16,,,22.34,Wunderground v.1.15,2013-03-06 08:37:00,
2013-03-06 03:42:00,25.1,18.0,29.75,NNW,344,0.0,5.0,74,15.16,,,23.53,Wunderground v.1.15,2013-03-06 08:42:00,
2013-03-06 03:47:00,25.0,17.9,29.75,West,278,0.0,2.0,74,15.16,,,24.76,Wunderground v.1.15,2013-03-06 08:47:00,
2013-03-06 03:52:00,25.0,16.3,29.75,NW,318,1.0,6.0,69,15.16,,,26.11,Wunderground v.1.15,2013-03-06 08:52:00,
2013-03-06 03:58:00,25.1,16.7,29.75,WNW,296,0.0,12.0,70,15.16,,,27.26,Wunderground v.1.15,2013-03-06 08:58:00,
2013-03-06 04:03:00,25.1,16.4,29.76,NE,40,0.0,12.0,69,15.16,,,28.49,Wunderground v.1.15,2013-03-06 09:03:00,
2013-03-06 04:08:00,25.1,16.7,29.76,North,0,5.0,10.0,70,15.16,,,29.72,Wunderground v.1.15,2013-03-06 09:08:00,
2013-03-06 04:13:00,25.1,17.7,29.76,East,85,0.0,10.0,73,15.16,,,30.95,Wunderground v.1.15,2013-03-06 09:13:00,
2013-03-06 04:18:00,24.8,18.6,29.76,NE,56,2.0,10.0,77,15.16,,,32.15,Wunderground v.1.15,2013-03-06 09:18:00,
2013-03-06 04:23:00,24.7,19.7,29.76,NE,54,3.0,10.0,81,14.40,,,33.45,Wunderground v.1.15,2013-03-06 09:23:00,
2013-03-06 04:28:00,24.4,19.4,29.76,NE,55,7.0,10.0,81,14.40,,,34.61,Wunderground v.1.15,2013-03-06 09:28:00,
2013-03-06 04:33:00,24.1,18.2,29.77,ENE,61,0.0,13.0,78,15.16,,,35.80,Wunderground v.1.15,2013-03-06 09:33:00,
2013-03-06 04:38:00,24.1,18.2,29.77,NE,38,0.0,5.0,78,15.16,,,37.07,Wunderground v.1.15,2013-03-06 09:38:00,
2013-03-06 04:43:00,24.1,18.2,29.77,NE,47,0.0,5.0,78,15.16,,,38.30,Wunderground v.1.15,2013-03-06 09:43:00,
2013-03-06 04:49:00,24.2,18.3,29.78,NW,316,0.0,0.0,78,15.16,,,39.41,Wunderground v.1.15,2013-03-06 09:49:00,
2013-03-06 04:56:00,24.2,18.0,29.78,East,86,0.0,0.0,77,15.16,,,41.23,Wunderground v.1.15,2013-03-06 09:56:00,
2013-03-06 05:01:00,24.2,18.3,29.78,East,86,0.0,0.0,78,15.16,,,42.42,Wunderground v.1.15,2013-03-06 10:01:00,
2013-03-06 05:06:00,24.2,18.6,29.78,North,10,0.0,0.0,79,14.40,,,43.58,Wunderground v.1.15,2013-03-06 10:06:00,
2013-03-06 05:12:00,24.2,18.6,29.78,North,0,0.0,0.0,79,15.16,,,44.96,Wunderground v.1.15,2013-03-06 10:12:00,
2013-03-06 05:17:00,24.2,18.0,29.78,NNW,340,1.0,6.0,77,15.16,,,46.19,Wunderground v.1.15,2013-03-06 10:17:00,
2013-03-06 05:22:00,24.1,17.9,29.77,North,0,1.0,10.0,77,15.16,,,47.42,Wunderground v.1.15,2013-03-06 10:22:00,
2013-03-06 05:27:00,24.1,18.2,29.77,ESE,109,0.0,8.0,78,14.40,,,48.58,Wunderground v.1.15,2013-03-06 10:27:00,
2013-03-06 05:32:00,24.2,18.0,29.78,SSW,213,0.0,8.0,77,14.40,,,49.89,Wunderground v.1.15,2013-03-06 10:32:00,
2013-03-06 05:37:00,24.2,17.7,29.78,West,265,3.0,3.0,76,15.16,,,51.08,Wunderground v.1.15,2013-03-06 10:37:00,
2013-03-06 05:43:00,24.4,17.6,29.78,WSW,237,4.0,14.0,75,15.16,,,52.31,Wunderground v.1.15,2013-03-06 10:43:00,
2013-03-06 05:48:00,24.7,17.0,29.78,NNW,336,0.0,10.0,72,15.16,,,53.54,Wunderground v.1.15,2013-03-06 10:48:00,
2013-03-06 05:53:00,24.8,17.1,29.78,WSW,257,0.0,16.0,72,15.16,,,54.77,Wunderground v.1.15,2013-03-06 10:53:00,
2013-03-06 05:58:00,24.8,17.1,29.78,NW,304,14.0,14.0,72,15.16,,,55.88,Wunderground v.1.15,2013-03-06 10:58:00,
2013-03-06 06:03:00,24.8,17.1,29.78,West,281,0.0,16.0,72,15.16,,,57.11,Wunderground v.1.15,2013-03-06 11:03:00,
2013-03-06 06:08:00,25.0,16.9,29.78,NNW,328,8.0,16.0,71,14.40,,,58.34,Wunderground v.1.15,2013-03-06 11:08:00,
2013-03-06 06:13:00,25.0,17.2,29.78,SW,227,5.0,16.0,72,14.40,,,59.61,Wunderground v.1.15,2013-03-06 11:13:00,
2013-03-06 06:18:00,25.0,17.2,29.79,WSW,256,0.0,6.0,72,15.16,,,60.84,Wunderground v.1.15,2013-03-06 11:18:00,
2013-03-06 06:26:00,25.0,16.9,29.79,NW,309,19.0,19.0,71,14.40,,,62.59,Wunderground v.1.15,2013-03-06 11:26:00,
2013-03-06 06:31:00,25.1,17.0,29.79,ENE,61,1.0,19.0,71,15.16,,,63.78,Wunderground v.1.15,2013-03-06 11:31:00,
2013-03-06 06:36:00,25.1,17.0,29.80,SW,216,6.0,6.0,71,15.16,,,65.01,Wunderground v.1.15,2013-03-06 11:36:00,
2013-03-06 06:41:00,25.1,17.0,29.80,WSW,250,3.0,15.0,71,15.16,,,66.24,Wunderground v.1.15,2013-03-06 11:41:00,
2013-03-06 06:46:00,25.1,17.3,29.80,NW,309,1.0,4.0,72,14.40,,,67.59,Wunderground v.1.15,2013-03-06 11:46:00,
2013-03-06 06:52:00,25.1,17.7,29.79,SW,236,0.0,6.0,73,15.16,,,68.78,Wunderground v.1.15,2013-03-06 11:52:00,
2013-03-06 06:57:00,25.1,17.3,29.79,East,80,0.0,3.0,72,15.16,,,69.89,Wunderground v.1.15,2013-03-06 11:57:00,
2013-03-06 07:02:00,25.1,17.7,29.79,SW,224,0.0,12.0,73,15.16,,,71.20,Wunderground v.1.15,2013-03-06 12:02:00,
2013-03-06 07:07:00,25.1,17.3,29.81,NE,37,2.0,7.0,72,15.16,,,72.31,Wunderground v.1.15,2013-03-06 12:07:00,
2013-03-06 07:12:00,25.0,17.6,29.81,NE,47,0.0,14.0,73,15.16,,,73.66,Wunderground v.1.15,2013-03-06 12:12:00,
2013-03-06 07:18:00,25.1,18.0,29.81,WSW,256,0.0,5.0,74,15.16,,,74.89,Wunderground v.1.15,2013-03-06 12:18:00,
2013-03-06 07:23:00,25.1,18.0,29.81,WNW,285,0.0,6.0,74,15.16,,,76.20,Wunderground v.1.15,2013-03-06 12:23:00,
2013-03-06 07:28:00,25.3,17.5,29.81,SW,229,0.0,7.0,72,15.16,,,77.43,Wunderground v.1.15,2013-03-06 12:28:00,
2013-03-06 07:33:00,25.4,17.6,29.82,North,1,12.0,12.0,72,15.16,,,78.54,Wunderground v.1.15,2013-03-06 12:33:00,
2013-03-06 07:38:00,25.6,17.5,29.82,North,356,3.0,6.0,71,14.40,,,79.81,Wunderground v.1.15,2013-03-06 12:38:00,
2013-03-06 07:43:00,25.6,17.8,29.82,ESE,116,0.0,10.0,72,15.16,,,81.00,Wunderground v.1.15,2013-03-06 12:43:00,
2013-03-06 07:48:00,25.7,17.6,29.82,West,263,0.0,3.0,71,15.16,,,82.27,Wunderground v.1.15,2013-03-06 12:48:00,
2013-03-06 07:53:00,25.8,17.7,29.82,NW,308,10.0,10.0,71,15.16,,,83.46,Wunderground v.1.15,2013-03-06 12:53:00,
2013-03-06 07:59:00,26.0,17.6,29.82,West,271,6.0,7.0,70,15.16,,,84.73,Wunderground v.1.15,2013-03-06 12:59:00,
2013-03-06 08:06:00,26.1,17.3,29.82,NNE,31,0.0,4.0,69,14.40,,,86.36,Wunderground v.1.15,2013-03-06 13:06:00,
2013-03-06 08:11:00,26.1,17.6,29.82,North,352,1.0,9.0,70,15.16,,,87.19,Wunderground v.1.15,2013-03-06 13:11:00,
2013-03-06 08:16:00,26.3,17.8,29.82,WNW,294,6.0,6.0,70,15.16,,,88.78,Wunderground v.1.15,2013-03-06 13:16:00,
2013-03-06 08:21:00,26.3,17.5,29.83,SSW,192,1.0,13.0,69,15.16,,,90.01,Wunderground v.1.15,2013-03-06 13:21:00,
2013-03-06 08:26:00,26.4,17.3,29.83,North,0,0.0,4.0,68,14.40,,,91.24,Wunderground v.1.15,2013-03-06 13:26:00,
2013-03-06 08:31:00,26.7,17.9,29.83,NNW,329,5.0,6.0,69,14.40,,,92.43,Wunderground v.1.15,2013-03-06 13:31:00,
2013-03-06 08:37:00,26.9,17.7,29.84,North,357,0.0,8.0,68,14.40,,,93.78,Wunderground v.1.15,2013-03-06 13:37:00,
2013-03-06 08:41:00,27.0,17.5,29.84,NW,313,1.0,8.0,67,14.40,,,94.97,Wunderground v.1.15,2013-03-06 13:41:00,
2013-03-06 08:47:00,27.3,17.8,29.84,NW,309,5.0,8.0,67,15.16,,,96.08,Wunderground v.1.15,2013-03-06 13:47:00,
2013-03-06 08:52:00,27.5,17.6,29.85,North,359,1.0,11.0,66,15.16,,,97.43,Wunderground v.1.15,2013-03-06 13:52:00,
2013-03-06 08:57:00,27.5,17.6,29.85,NW,315,8.0,8.0,66,14.40,,,98.54,Wunderground v.1.15,2013-03-06 13:57:00,
2013-03-06 09:02:00,27.6,17.7,29.85,WSW,258,3.0,11.0,66,14.40,,,99.89,Wunderground v.1.15,2013-03-06 14:02:00,
2013-03-06 09:07:00,27.8,18.6,29.85,NW,319,8.0,8.0,68,14.40,,,99.99,Wunderground v.1.15,2013-03-06 14:07:00,
2013-03-06 09:12:00,27.9,18.4,29.85,North,7,0.0,17.0,67,14.40,,,99.99,Wunderground v.1.15,2013-03-06 14:12:00,
2013-03-06 09:17:00,28.4,18.5,29.86,WNW,299,19.0,19.0,66,15.16,,,99.99,Wunderground v.1.15,2013-03-06 14:17:00,
2013-03-06 09:23:00,28.7,18.8,29.86,SW,226,6.0,19.0,66,15.16,,,99.99,Wunderground v.1.15,2013-03-06 14:23:00,
2013-03-06 09:28:00,29.1,18.8,29.86,North,0,9.0,11.0,65,15.16,,,99.99,Wunderground v.1.15,2013-03-06 14:28:00,
2013-03-06 09:33:00,29.1,18.1,29.86,ENE,62,0.0,16.0,63,14.40,,,99.99,Wunderground v.1.15,2013-03-06 14:33:00,
2013-03-06 09:38:00,29.3,18.3,29.86,ESE,104,0.0,5.0,63,15.16,,,99.99,Wunderground v.1.15,2013-03-06 14:38:00,
2013-03-06 09:43:00,29.4,18.3,29.86,East,86,7.0,10.0,63,14.40,,,99.99,Wunderground v.1.15,2013-03-06 14:43:00,
2013-03-06 09:48:00,29.4,18.7,29.87,NE,47,5.0,14.0,64,15.16,,,99.99,Wunderground v.1.15,2013-03-06 14:48:00,
2013-03-06 09:54:00,29.7,19.7,29.87,SW,222,2.0,14.0,66,15.16,,,99.99,Wunderground v.1.15,2013-03-06 14:54:00,
2013-03-06 09:59:00,30.0,18.9,29.87,West,272,6.0,13.0,63,15.16,,,99.99,Wunderground v.1.15,2013-03-06 14:59:00,
2013-03-06 10:04:00,30.0,19.3,29.89,WNW,302,0.0,5.0,64,14.40,,,99.99,Wunderground v.1.15,2013-03-06 15:04:00,
2013-03-06 10:09:00,30.3,20.3,29.89,North,359,6.0,13.0,66,14.40,,,99.99,Wunderground v.1.15,2013-03-06 15:09:00,
2013-03-06 10:16:00,30.1,19.4,29.89,NW,316,0.0,8.0,64,15.16,,,99.99,Wunderground v.1.15,2013-03-06 15:16:00,
2013-03-06 10:21:00,30.6,20.2,29.90,SE,138,1.0,11.0,65,15.16,,,99.99,Wunderground v.1.15,2013-03-06 15:21:00,
2013-03-06 10:26:00,30.9,20.1,29.90,NNW,333,11.0,11.0,64,15.16,,,99.99,Wunderground v.1.15,2013-03-06 15:26:00,
2013-03-06 10:31:00,31.2,20.4,29.90,North,357,0.0,19.0,64,15.16,,,99.99,Wunderground v.1.15,2013-03-06 15:31:00,
2013-03-06 10:36:00,31.6,20.1,29.89,West,260,10.0,11.0,62,14.40,,,99.99,Wunderground v.1.15,2013-03-06 15:36:00,
2013-03-06 10:42:00,32.2,21.7,29.89,SW,236,0.0,11.0,65,14.40,,,99.99,Wunderground v.1.15,2013-03-06 15:42:00,
2013-03-06 10:47:00,32.8,21.2,29.89,NW,320,12.0,12.0,62,14.40,,,99.99,Wunderground v.1.15,2013-03-06 15:47:00,
2013-03-06 10:51:00,32.5,20.1,29.89,NNE,24,4.0,18.0,60,14.40,,,99.99,Wunderground v.1.15,2013-03-06 15:51:00,
2013-03-06 10:57:00,31.8,20.6,29.89,ESE,103,1.0,8.0,63,15.16,,,99.99,Wunderground v.1.15,2013-03-06 15:57:00,
2013-03-06 11:02:00,31.2,20.1,29.89,ENE,64,7.0,8.0,63,15.16,,,99.99,Wunderground v.1.15,2013-03-06 16:02:00,
2013-03-06 11:07:00,31.2,20.1,29.91,SSE,161,0.0,19.0,63,15.16,,,99.99,Wunderground v.1.15,2013-03-06 16:07:00,
2013-03-06 11:12:00,31.0,21.0,29.91,NW,304,0.0,19.0,66,15.16,,,99.99,Wunderground v.1.15,2013-03-06 16:12:00,
2013-03-06 11:17:00,31.2,21.2,29.91,SSE,155,0.0,5.0,66,15.16,,,99.99,Wunderground v.1.15,2013-03-06 16:17:00,
2013-03-06 11:22:00,31.0,20.2,29.92,WNW,295,6.0,6.0,64,15.16,,,99.99,Wunderground v.1.15,2013-03-06 16:22:00,
2013-03-06 11:27:00,31.0,21.0,29.92,WNW,287,2.0,4.0,66,14.40,,,99.99,Wunderground v.1.15,2013-03-06 16:27:00,
2013-03-06 11:32:00,31.0,20.6,29.94,WSW,240,0.0,15.0,65,14.40,,,99.99,Wunderground v.1.15,2013-03-06 16:32:00,
2013-03-06 11:37:00,31.0,20.2,29.94,ESE,110,2.0,11.0,64,14.40,,,99.99,Wunderground v.1.15,2013-03-06 16:37:00,
2013-03-06 11:43:00,30.7,20.0,29.94,North,0,5.0,11.0,64,15.16,,,99.99,Wunderground v.1.15,2013-03-06 16:43:00,
2013-03-06 11:48:00,30.7,20.3,29.94,NNE,21,12.0,16.0,65,15.16,,,99.99,Wunderground v.1.15,2013-03-06 16:48:00,
2013-03-06 11:53:00,30.9,20.1,29.94,NW,323,1.0,16.0,64,14.40,,,99.99,Wunderground v.1.15,2013-03-06 16:53:00,
2013-03-06 11:58:00,31.2,20.8,29.94,North,7,6.0,7.0,65,14.40,,,99.99,Wunderground v.1.15,2013-03-06 16:58:00,
2013-03-06 12:03:00,31.3,21.3,29.95,ENE,68,0.0,7.0,66,15.16,,,99.99,Wunderground v.1.15,2013-03-06 17:03:00,
2013-03-06 12:09:00,31.2,20.4,29.95,NE,55,6.0,6.0,64,15.16,,,99.99,Wunderground v.1.15,2013-03-06 17:09:00,
2013-03-06 12:16:00,31.0,20.2,29.95,ENE,58,10.0,10.0,64,15.16,,,99.99,Wunderground v.1.15,2013-03-06 17:16:00,
2013-03-06 12:21:00,30.9,21.2,29.97,East,79,0.0,10.0,67,15.16,,,99.99,Wunderground v.1.15,2013-03-06 17:21:00,
2013-03-06 12:26:00,30.7,20.3,29.97,NW,311,5.0,6.0,65,15.16,,,99.99,Wunderground v.1.15,2013-03-06 17:26:00,
2013-03-06 12:31:00,30.7,20.3,29.97,NE,45,1.0,11.0,65,14.40,,,99.99,Wunderground v.1.15,2013-03-06 17:31:00,
2013-03-06 12:37:00,30.6,21.6,29.98,NE,54,8.0,8.0,69,14.40,,,99.99,Wunderground v.1.15,2013-03-06 17:37:00,
2013-03-06 12:42:00,30.6,20.6,29.98,NW,316,2.0,8.0,66,15.16,,,99.99,Wunderground v.1.15,2013-03-06 17:42:00,
2013-03-06 12:47:00,30.7,21.4,29.98,North,0,0.0,10.0,68,15.16,,,99.99,Wunderground v.1.15,2013-03-06 17:47:00,
2013-03-06 12:52:00,30.7,21.0,29.97,East,88,0.0,10.0,67,15.16,,,99.99,Wunderground v.1.15,2013-03-06 17:52:00,
2013-03-06 12:57:00,30.9,21.6,29.97,North,350,0.0,6.0,68,15.16,,,99.99,Wunderground v.1.15,2013-03-06 17:57:00,
2013-03-06 13:02:00,31.3,22.3,29.98,SE,138,0.0,11.0,69,14.40,,,99.99,Wunderground v.1.15,2013-03-06 18:02:00,
2013-03-06 13:07:00,31.8,21.4,29.98,NNW,328,0.0,14.0,65,15.16,,,99.99,Wunderground v.1.15,2013-03-06 18:07:00,
2013-03-06 13:12:00,31.9,21.8,29.98,East,99,1.0,14.0,66,15.16,,,99.99,Wunderground v.1.15,2013-03-06 18:12:00,
2013-03-06 13:18:00,31.9,21.8,29.98,NW,313,2.0,13.0,66,15.16,,,99.99,Wunderground v.1.15,2013-03-06 18:18:00,
2013-03-06 13:23:00,31.9,22.2,29.98,NW,313,5.0,13.0,67,15.16,,,99.99,Wunderground v.1.15,2013-03-06 18:23:00,
2013-03-06 13:28:00,32.1,22.0,29.98,East,86,0.0,5.0,66,15.16,,,99.99,Wunderground v.1.15,2013-03-06 18:28:00,
2013-03-06 13:33:00,32.5,22.0,29.98,NW,305,1.0,12.0,65,14.40,,,99.99,Wunderground v.1.15,2013-03-06 18:33:00,
2013-03-06 13:38:00,32.8,23.7,29.98,SE,145,0.0,10.0,69,14.40,,,99.99,Wunderground v.1.15,2013-03-06 18:38:00,
2013-03-06 13:43:00,33.2,23.4,29.98,ESE,102,0.0,11.0,67,14.40,,,99.99,Wunderground v.1.15,2013-03-06 18:43:00,
2013-03-06 13:48:00,34.4,22.7,29.98,NNE,32,7.0,11.0,62,15.16,,,99.99,Wunderground v.1.15,2013-03-06 18:48:00,
2013-03-06 13:53:00,34.3,22.2,29.98,East,85,2.0,11.0,61,15.16,,,99.99,Wunderground v.1.15,2013-03-06 18:53:00,
2013-03-06 13:59:00,34.0,23.1,29.98,NE,55,13.0,13.0,64,15.16,,,99.99,Wunderground v.1.15,2013-03-06 18:59:00,
2013-03-06 14:04:00,33.7,23.2,29.98,NE,49,10.0,10.0,65,14.40,,,99.99,Wunderground v.1.15,2013-03-06 19:04:00,
2013-03-06 14:09:00,33.8,24.0,29.98,ENE,71,0.0,12.0,67,14.40,,,99.99,Wunderground v.1.15,2013-03-06 19:09:00,
2013-03-06 14:14:00,34.0,22.7,29.98,SSE,161,0.0,3.0,63,15.16,,,99.99,Wunderground v.1.15,2013-03-06 19:14:00,
2013-03-06 14:20:00,33.8,23.3,29.98,West,264,10.0,22.0,65,15.16,,,99.99,Wunderground v.1.15,2013-03-06 19:20:00,
2013-03-06 14:26:00,33.1,22.2,29.98,NE,41,0.0,4.0,64,15.16,,,99.99,Wunderground v.1.15,2013-03-06 19:26:00,
2013-03-06 14:31:00,32.5,22.0,29.98,WNW,294,7.0,13.0,65,14.40,,,99.99,Wunderground v.1.15,2013-03-06 19:31:00,
2013-03-06 14:36:00,32.2,22.8,30.00,West,261,7.0,7.0,68,14.40,,,99.99,Wunderground v.1.15,2013-03-06 19:36:00,
2013-03-06 14:41:00,32.1,22.4,30.00,South,186,0.0,12.0,67,14.40,,,99.99,Wunderground v.1.15,2013-03-06 19:41:00,
2013-03-06 14:47:00,32.1,22.0,30.00,NW,313,2.0,3.0,66,14.40,,,99.99,Wunderground v.1.15,2013-03-06 19:47:00,
2013-03-06 14:52:00,31.9,22.2,30.00,NNW,336,0.0,12.0,67,15.16,,,99.99,Wunderground v.1.15,2013-03-06 19:52:00,
2013-03-06 14:57:00,31.8,22.1,30.00,SW,226,0.0,6.0,67,15.16,,,99.99,Wunderground v.1.15,2013-03-06 19:57:00,
2013-03-06 15:02:00,31.8,22.1,30.00,NE,35,19.0,19.0,67,15.16,,,99.99,Wunderground v.1.15,2013-03-06 20:02:00,
2013-03-06 15:07:00,31.6,21.9,30.00,North,3,0.0,16.0,67,15.16,,,99.99,Wunderground v.1.15,2013-03-06 20:07:00,
2013-03-06 15:12:00,31.6,22.6,30.00,SSW,199,7.0,16.0,69,14.40,,,99.99,Wunderground v.1.15,2013-03-06 20:12:00,
2013-03-06 15:17:00,31.8,22.1,30.02,ESE,120,3.0,7.0,67,14.40,,,99.99,Wunderground v.1.15,2013-03-06 20:17:00,
2013-03-06 15:22:00,32.2,23.2,30.02,ENE,66,1.0,13.0,69,14.40,,,99.99,Wunderground v.1.15,2013-03-06 20:22:00,
2013-03-06 15:27:00,32.4,22.3,30.02,ESE,104,0.0,8.0,66,14.40,,,99.99,Wunderground v.1.15,2013-03-06 20:27:00,
2013-03-06 15:33:00,32.5,23.8,30.03,NNE,27,0.0,9.0,70,14.40,,,99.99,Wunderground v.1.15,2013-03-06 20:33:00,
2013-03-06 15:38:00,32.5,23.5,30.03,ENE,61,8.0,8.0,69,14.40,,,99.99,Wunderground v.1.15,2013-03-06 20:38:00,
2013-03-06 15:43:00,32.2,22.8,30.03,NNE,23,0.0,12.0,68,15.16,,,99.99,Wunderground v.1.15,2013-03-06 20:43:00,
2013-03-06 15:48:00,32.1,23.8,30.03,East,96,3.0,3.0,71,15.16,,,99.99,Wunderground v.1.15,2013-03-06 20:48:00,
2013-03-06 15:53:00,31.8,23.5,30.03,East,93,5.0,7.0,71,15.16,,,99.99,Wunderground v.1.15,2013-03-06 20:53:00,
2013-03-06 15:59:00,31.6,23.6,30.03,North,350,0.0,5.0,72,15.16,,,99.99,Wunderground v.1.15,2013-03-06 20:59:00,
2013-03-06 16:06:00,31.9,23.6,30.04,East,83,4.0,4.0,71,15.16,,,99.99,Wunderground v.1.15,2013-03-06 21:06:00,
2013-03-06 16:11:00,31.9,23.6,30.04,ENE,65,3.0,11.0,71,15.16,,,99.99,Wunderground v.1.15,2013-03-06 21:11:00,
2013-03-06 16:16:00,32.1,23.4,30.04,East,80,6.0,7.0,70,15.16,,,99.99,Wunderground v.1.15,2013-03-06 21:16:00,
2013-03-06 16:21:00,32.1,23.4,30.04,NE,34,3.0,13.0,70,15.16,,,99.99,Wunderground v.1.15,2013-03-06 21:21:00,
2013-03-06 16:26:00,32.2,23.5,30.04,NE,40,3.0,5.0,70,15.16,,,99.99,Wunderground v.1.15,2013-03-06 21:26:00,
2013-03-06 16:31:00,32.2,23.8,30.04,West,270,0.0,10.0,71,14.40,,,99.99,Wunderground v.1.15,2013-03-06 21:31:00,
2013-03-06 16:36:00,32.4,23.7,30.05,East,79,0.0,7.0,70,14.40,,,99.99,Wunderground v.1.15,2013-03-06 21:36:00,
2013-03-06 16:42:00,32.5,24.1,30.05,ESE,120,0.0,12.0,71,14.40,,,99.99,Wunderground v.1.15,2013-03-06 21:42:00,
2013-03-06 16:47:00,32.7,23.6,30.05,ESE,104,0.0,3.0,69,15.16,,,99.99,Wunderground v.1.15,2013-03-06 21:47:00,
2013-03-06 16:52:00,32.5,23.5,30.06,North,11,9.0,13.0,69,15.16,,,99.99,Wunderground v.1.15,2013-03-06 21:52:00,
2013-03-06 16:57:00,32.4,23.7,30.06,ENE,73,6.0,10.0,70,15.16,,,99.99,Wunderground v.1.15,2013-03-06 21:57:00,
2013-03-06 17:02:00,32.2,24.2,30.06,East,79,6.0,10.0,72,14.40,,,99.99,Wunderground v.1.15,2013-03-06 22:02:00,
2013-03-06 17:07:00,32.1,24.1,30.06,ENE,65,0.0,7.0,72,14.40,,,99.99,Wunderground v.1.15,2013-03-06 22:07:00,
2013-03-06 17:13:00,32.1,24.1,30.06,East,88,5.0,14.0,72,15.16,,,99.99,Wunderground v.1.15,2013-03-06 22:13:00,
2013-03-06 17:18:00,31.8,24.1,30.06,NE,38,6.0,12.0,73,15.16,,,99.99,Wunderground v.1.15,2013-03-06 22:18:00,
2013-03-06 17:23:00,31.6,24.3,30.06,ENE,72,2.0,12.0,74,15.16,,,99.99,Wunderground v.1.15,2013-03-06 22:23:00,
2013-03-06 17:28:00,31.5,24.2,30.06,East,88,4.0,8.0,74,15.16,,,99.99,Wunderground v.1.15,2013-03-06 22:28:00,
2013-03-06 17:33:00,31.6,24.6,30.07,ENE,72,3.0,8.0,75,15.16,,,99.99,Wunderground v.1.15,2013-03-06 22:33:00,
2013-03-06 17:38:00,31.6,24.3,30.07,ENE,61,0.0,3.0,74,15.16,,,99.99,Wunderground v.1.15,2013-03-06 22:38:00,
2013-03-06 17:43:00,31.5,24.2,30.07,East,80,0.0,7.0,74,14.40,,,99.99,Wunderground v.1.15,2013-03-06 22:43:00,
2013-03-06 17:48:00,31.3,24.0,30.08,ENE,71,0.0,10.0,74,14.40,,,99.99,Wunderground v.1.15,2013-03-06 22:48:00,
2013-03-06 17:53:00,31.2,23.9,30.08,ENE,64,3.0,10.0,74,14.40,,,99.99,Wunderground v.1.15,2013-03-06 22:53:00,
2013-03-06 17:58:00,31.0,24.0,30.08,ENE,73,0.0,3.0,75,15.16,,,99.99,Wunderground v.1.15,2013-03-06 22:58:00,
2013-03-06 18:03:00,30.9,23.9,30.08,ENE,61,0.0,13.0,75,15.16,,,99.99,Wunderground v.1.15,2013-03-06 23:03:00,
2013-03-06 18:09:00,30.9,23.9,30.08,NE,56,0.0,10.0,75,15.16,,,99.99,Wunderground v.1.15,2013-03-06 23:09:00,
2013-03-06 18:16:00,30.9,23.6,30.08,NNE,20,0.0,3.0,74,14.40,,,99.99,Wunderground v.1.15,2013-03-06 23:16:00,
2013-03-06 18:21:00,30.7,23.7,30.09,ENE,72,0.0,12.0,75,15.16,,,99.99,Wunderground v.1.15,2013-03-06 23:21:00,
2013-03-06 18:26:00,30.4,23.4,30.09,North,3,1.0,3.0,75,15.16,,,99.99,Wunderground v.1.15,2013-03-06 23:26:00,
2013-03-06 18:31:00,30.3,23.3,30.09,East,86,3.0,6.0,75,14.40,,,99.99,Wunderground v.1.15,2013-03-06 23:31:00,
2013-03-06 18:36:00,30.3,23.3,30.10,SSW,213,0.0,1.0,75,14.40,,,99.99,Wunderground v.1.15,2013-03-06 23:36:00,
2013-03-06 18:42:00,30.1,23.1,30.10,ENE,65,5.0,7.0,75,14.40,,,99.99,Wunderground v.1.15,2013-03-06 23:42:00,
2013-03-06 18:47:00,30.1,23.1,30.10,North,10,6.0,7.0,75,15.16,,,99.99,Wunderground v.1.15,2013-03-06 23:47:00,
2013-03-06 18:52:00,30.0,23.0,30.11,North,8,6.0,14.0,75,15.16,,,99.99,Wunderground v.1.15,2013-03-06 23:52:00,
2013-03-06 18:57:00,30.0,23.4,30.11,SSW,208,1.0,3.0,76,14.40,,,99.99,Wunderground v.1.15,2013-03-06 23:57:00,
2013-03-06 19:02:00,30.0,23.4,30.13,NW,320,3.0,3.0,76,15.16,,,99.99,Wunderground v.1.15,2013-03-07 00:02:00,
2013-03-06 19:07:00,29.8,23.2,30.13,SE,134,0.0,5.0,76,14.40,,,99.99,Wunderground v.1.15,2013-03-07 00:07:00,
2013-03-06 19:12:00,29.8,23.2,30.13,ENE,64,0.0,5.0,76,14.40,,,99.99,Wunderground v.1.15,2013-03-07 00:12:00,
2013-03-06 19:17:00,29.7,23.4,30.11,NNE,24,0.0,1.0,77,15.16,,,99.99,Wunderground v.1.15,2013-03-07 00:17:00,
2013-03-06 19:23:00,29.7,23.4,30.11,NE,42,2.0,7.0,77,15.16,,,99.99,Wunderground v.1.15,2013-03-07 00:23:00,
2013-03-06 19:28:00,29.5,23.2,30.11,NNE,23,3.0,7.0,77,15.16,,,99.99,Wunderground v.1.15,2013-03-07 00:28:00,
2013-03-06 19:33:00,29.5,23.2,30.12,NNE,27,0.0,7.0,77,15.16,,,99.99,Wunderground v.1.15,2013-03-07 00:33:00,
2013-03-06 19:38:00,29.4,23.1,30.12,NE,42,8.0,8.0,77,14.40,,,99.99,Wunderground v.1.15,2013-03-07 00:38:00,
2013-03-06 19:43:00,29.4,23.1,30.12,NE,49,5.0,8.0,77,14.40,,,99.99,Wunderground v.1.15,2013-03-07 00:43:00,
2013-03-06 19:48:00,29.4,23.1,30.13,North,0,0.0,5.0,77,15.16,,,99.99,Wunderground v.1.15,2013-03-07 00:48:00,
2013-03-06 19:54:00,29.4,23.1,30.13,NE,56,0.0,5.0,77,15.16,,,99.99,Wunderground v.1.15,2013-03-07 00:54:00,
2013-03-06 19:59:00,29.3,23.3,30.13,NNW,344,1.0,1.0,78,15.16,,,99.99,Wunderground v.1.15,2013-03-07 00:59:00,
2013-03-06 20:04:00,29.3,23.3,30.12,WSW,237,0.0,1.0,78,15.16,,,99.99,Wunderground v.1.15,2013-03-07 01:04:00,
2013-03-06 20:09:00,29.3,23.3,30.12,NNE,25,3.0,3.0,78,14.40,,,99.99,Wunderground v.1.15,2013-03-07 01:09:00,
2013-03-06 20:14:00,29.3,23.3,30.12,NNW,343,0.0,2.0,78,14.40,,,99.99,Wunderground v.1.15,2013-03-07 01:14:00,
2013-03-06 20:19:00,29.3,23.3,30.13,East,95,0.0,8.0,78,14.40,,,99.99,Wunderground v.1.15,2013-03-07 01:19:00,
2013-03-06 20:26:00,29.1,23.1,30.13,NNE,17,0.0,2.0,78,15.16,,,99.99,Wunderground v.1.15,2013-03-07 01:26:00,
2013-03-06 20:31:00,29.1,23.1,30.13,NNW,342,0.0,3.0,78,15.16,,,99.99,Wunderground v.1.15,2013-03-07 01:31:00,
2013-03-06 20:36:00,29.1,23.4,30.13,NE,42,7.0,7.0,79,15.16,,,99.99,Wunderground v.1.15,2013-03-07 01:36:00,
2013-03-06 20:41:00,29.1,23.1,30.13,ENE,66,0.0,7.0,78,15.16,,,99.99,Wunderground v.1.15,2013-03-07 01:41:00,
2013-03-06 20:46:00,29.0,23.3,30.13,NNW,330,0.0,1.0,79,14.40,,,99.99,Wunderground v.1.15,2013-03-07 01:46:00,
2013-03-06 20:51:00,29.0,23.3,30.13,NE,42,0.0,7.0,79,14.40,,,99.99,Wunderground v.1.15,2013-03-07 01:51:00,
2013-03-06 20:57:00,29.0,23.3,30.13,NE,40,0.0,8.0,79,15.16,,,99.99,Wunderground v.1.15,2013-03-07 01:57:00,
2013-03-06 21:02:00,28.8,23.4,30.13,NNE,28,0.0,10.0,80,15.16,,,99.99,Wunderground v.1.15,2013-03-07 02:02:00,
2013-03-06 21:07:00,28.8,23.1,30.14,NE,49,0.0,5.0,79,15.16,,,99.99,Wunderground v.1.15,2013-03-07 02:07:00,
2013-03-06 21:12:00,28.8,23.1,30.14,NE,45,0.0,5.0,79,14.40,,,99.99,Wunderground v.1.15,2013-03-07 02:12:00,
2013-03-06 21:17:00,28.8,23.1,30.14,North,6,8.0,8.0,79,14.40,,,99.99,Wunderground v.1.15,2013-03-07 02:17:00,
2013-03-06 21:22:00,29.0,23.3,30.14,NNE,27,0.0,8.0,79,15.16,,,99.99,Wunderground v.1.15,2013-03-07 02:22:00,
2013-03-06 21:28:00,29.0,23.3,30.14,NNE,14,3.0,8.0,79,15.16,,,99.99,Wunderground v.1.15,2013-03-07 02:28:00,
2013-03-06 21:33:00,28.8,23.1,30.14,NNE,16,0.0,8.0,79,14.40,,,99.99,Wunderground v.1.15,2013-03-07 02:33:00,
2013-03-06 21:38:00,28.8,23.1,30.14,North,3,11.0,11.0,79,15.16,,,99.99,Wunderground v.1.15,2013-03-07 02:38:00,
2013-03-06 21:43:00,28.8,23.1,30.14,NE,42,0.0,11.0,79,15.16,,,99.99,Wunderground v.1.15,2013-03-07 02:43:00,
2013-03-06 21:49:00,28.8,23.1,30.14,North,0,0.0,3.0,79,15.16,,,99.99,Wunderground v.1.15,2013-03-07 02:49:00,
2013-03-06 21:54:00,28.8,23.1,30.14,ENE,68,5.0,5.0,79,15.16,,,99.99,Wunderground v.1.15,2013-03-07 02:54:00,
2013-03-06 21:59:00,28.8,22.8,30.14,NNE,24,0.0,6.0,78,14.40,,,99.99,Wunderground v.1.15,2013-03-07 02:59:00,
2013-03-06 22:04:00,28.8,23.1,30.15,ENE,59,0.0,1.0,79,14.40,,,99.99,Wunderground v.1.15,2013-03-07 03:04:00,
2013-03-06 22:09:00,28.8,23.1,30.15,NE,44,0.0,8.0,79,14.40,,,99.99,Wunderground v.1.15,2013-03-07 03:09:00,
2013-03-06 22:16:00,28.8,23.1,30.15,ENE,64,0.0,2.0,79,15.16,,,99.99,Wunderground v.1.15,2013-03-07 03:16:00,
2013-03-06 22:21:00,28.7,23.0,30.14,East,83,1.0,10.0,79,14.40,,,99.99,Wunderground v.1.15,2013-03-07 03:21:00,
2013-03-06 22:27:00,28.7,23.0,30.14,North,10,0.0,12.0,79,14.40,,,99.99,Wunderground v.1.15,2013-03-07 03:27:00,
2013-03-06 22:32:00,28.7,23.0,30.14,NE,56,4.0,12.0,79,14.40,,,99.99,Wunderground v.1.15,2013-03-07 03:32:00,
2013-03-06 22:37:00,28.5,22.5,30.15,ENE,72,7.0,7.0,78,14.40,,,99.99,Wunderground v.1.15,2013-03-07 03:37:00,
2013-03-06 22:42:00,28.5,22.8,30.15,North,1,0.0,9.0,79,14.40,,,99.99,Wunderground v.1.15,2013-03-07 03:42:00,
2013-03-06 22:47:00,28.4,22.7,30.15,NE,44,1.0,5.0,79,15.16,,,99.99,Wunderground v.1.15,2013-03-07 03:47:00,
2013-03-06 22:52:00,28.4,22.7,30.15,ENE,65,5.0,12.0,79,15.16,,,99.99,Wunderground v.1.15,2013-03-07 03:52:00,
2013-03-06 22:57:00,28.4,22.7,30.15,NE,56,3.0,11.0,79,15.16,,,99.99,Wunderground v.1.15,2013-03-07 03:57:00,
2013-03-06 23:02:00,28.4,22.7,30.15,NE,52,8.0,14.0,79,15.16,,,99.99,Wunderground v.1.15,2013-03-07 04:02:00,
2013-03-06 23:07:00,28.2,22.5,30.15,North,356,10.0,13.0,79,15.16,,,99.99,Wunderground v.1.15,2013-03-07 04:07:00,
2013-03-06 23:12:00,28.2,22.5,30.15,NE,41,5.0,13.0,79,14.40,,,99.99,Wunderground v.1.15,2013-03-07 04:12:00,
2013-03-06 23:18:00,28.2,22.2,30.14,ENE,66,9.0,13.0,78,15.16,,,99.99,Wunderground v.1.15,2013-03-07 04:18:00,
2013-03-06 23:23:00,28.2,22.2,30.14,NE,56,11.0,17.0,78,15.16,,,99.99,Wunderground v.1.15,2013-03-07 04:23:00,
2013-03-06 23:28:00,28.2,22.5,30.14,ENE,66,3.0,9.0,79,14.40,,,99.99,Wunderground v.1.15,2013-03-07 04:28:00,
2013-03-06 23:33:00,28.1,22.4,30.15,NNE,31,6.0,11.0,79,14.40,,,99.99,Wunderground v.1.15,2013-03-07 04:33:00,
2013-03-06 23:39:00,28.1,22.4,30.15,NE,40,0.0,12.0,79,15.16,,,99.99,Wunderground v.1.15,2013-03-07 04:39:00,
2013-03-06 23:44:00,28.1,22.4,30.15,NNW,337,2.0,15.0,79,14.40,,,99.99,Wunderground v.1.15,2013-03-07 04:44:00,
2013-03-06 23:49:00,28.1,22.4,30.15,NE,41,3.0,9.0,79,14.40,,,99.99,Wunderground v.1.15,2013-03-07 04:49:00,
2013-03-06 23:54:00,28.1,22.4,30.15,NNW,332,1.0,9.0,79,14.40,,,99.99,Wunderground v.1.15,2013-03-07 04:54:00,
2013-03-06 23:59:00,28.1,22.4,30.15,NE,51,10.0,11.0,79,15.16,,,99.99,Wunderground v.1.15,2013-03-07 04:59:00,